Cloud_Cover
100 100 100 100 100 100 100 100 100 100 100 100 100 100 100 100 100 93 38 75 86 92 38 8 77 96 100 100 100 90 19 61 9 100 94 100 100 100 100 100 100 100 100 100 100 94 80 5 5 5 2 0 0 2
100 100 64 100 100 100 98 100 100 100 100 100 100 100 83 96 99 100 65 87 100 100 46 44 100 100 67 100 64 10 22 61 56 100 100 100 100 98 100 100 100 100 100 100 100 100 19 56 64 5 5 5 5 5
100 100 99 97 59 87 100 99 100 100 100 100 100 100 98 78 89 100 77 100 27 93 17 40 100 100 99 82 18 76 4 4 100 100 100 100 100 100 100 100 100 100 100 100 100 100 87 100 95 100 99 63 47 7
95 41 34 62 14 99 96 100 100 100 100 100 100 100 99 11 100 100 99 95 58 57 76 18 100 100 83 83 11 3 4 79 100 100 100 100 100 100 100 100 100 100 100 100 100 100 93 98 66 25 56 95 80 68
100 75 29 17 7 18 99 100 100 100 100 100 100 100 99 55 93 100 99 69 99 58 62 35 45 11 5 4 14 80 57 100 100 100 100 100 100 100 100 100 100 100 100 100 100 100 97 36 94 95 92 100 81 73
100 92 92 5 6 67 100 100 100 100 100 100 100 100 85 72 100 100 71 96 97 100 100 92 5 65 17 61 100 80 100 100 100 100 88 100 100 100 100 100 100 100 100 100 100 100 65 99 100 100 100 100 99 63
32 19 5 5 5 5 18 100 100 100 100 100 100 100 100 100 100 68 18 100 100 100 100 78 84 100 100 100 100 100 100 100 100 99 100 100 97 96 84 98 100 100 100 100 100 100 99 100 100 100 100 100 73 88
64 100 100 5 5 6 76 100 100 100 100 100 100 100 100 100 86 16 5 92 100 100 99 100 60 96 100 100 100 100 100 100 100 100 100 100 100 93 85 100 100 100 100 100 100 100 100 100 100 100 100 100 77 100
15 100 100 100 90 100 100 100 100 100 100 100 100 100 87 76 89 73 52 68 100 100 100 99 75 100 100 100 100 100 100 100 100 100 100 100 100 100 100 100 100 100 100 100 100 82 100 96 94 100 100 98 100 98
72 100 100 100 100 100 100 100 100 100 100 100 94 90 71 66 100 60 100 100 100 100 100 100 100 100 100 100 100 100 100 100 100 100 99 100 100 100 100 100 100 100 100 100 100 100 100 100 100 100 100 100 100 100
46 100 100 100 100 100 100 100 100 100 98 99 100 41 98 74 99 100 96 100 100 100 100 100 100 100 100 100 100 100 99 96 100 100 100 100 100 100 100 100 100 100 100 100 100 100 98 100 100 100 100 100 100 100
93 100 100 100 100 100 100 100 100 100 100 95 90 57 90 82 86 99 100 100 100 100 100 100 100 100 100 100 100 100 100 92 100 100 100 100 100 99 100 100 100 100 100 100 98 100 97 100 100 100 100 100 100 100
100 98 95 100 100 100 100 100 100 100 100 96 93 100 80 55 94 100 100 100 100 100 100 100 100 100 100 100 100 100 100 83 99 100 97 100 100 100 100 100 100 100 100 100 100 100 100 100 100 100 100 100 98 87
100 100 98 100 100 100 100 100 100 100 100 100 99 96 93 71 69 100 100 100 100 100 100 100 100 100 100 100 100 100 100 69 89 100 100 100 100 100 72 100 100 100 100 100 100 100 100 100 100 100 100 100 84 39
100 100 100 100 100 100 100 100 100 100 100 99 98 58 82 100 100 100 100 100 100 100 100 100 100 100 100 100 100 100 100 97 99 100 100 100 97 100 100 100 100 100 100 100 100 100 100 100 100 100 100 95 99 100
100 100 100 100 100 100 100 100 100 100 100 99 83 69 77 100 99 100 100 100 100 100 100 100 100 100 100 100 100 89 78 100 96 100 100 100 100 100 100 100 100 100 100 100 100 100 100 100 100 100 100 100 100 96
78 99 100 100 100 100 100 100 100 100 100 79 53 28 75 70 98 100 98 100 100 100 100 100 100 100 99 100 89 79 100 100 100 100 100 100 100 100 91 100 99 100 100 100 100 100 100 100 100 100 100 98 63 78
100 100 100 92 100 100 96 100 98 83 56 21 52 67 38 83 97 100 100 100 100 100 100 100 100 100 100 100 61 92 91 98 100 100 100 100 100 100 100 97 100 100 100 100 100 100 100 100 100 100 100 100 100 50
100 95 100 100 100 100 63 95 100 95 62 51 89 93 65 77 94 100 100 100 100 100 100 100 100 100 95 79 67 78 100 100 96 99 85 41 67 100 100 100 100 100 100 100 100 97 94 100 100 100 99 100 100 81
98 100 100 88 96 100 83 92 79 89 97 50 90 78 80 67 100 100 100 100 100 100 98 100 100 91 70 86 84 64 16 36 99 95 93 95 91 100 100 100 100 100 100 100 97 98 100 100 100 100 100 88 94 100
62 100 74 85 90 100 100 100 100 99 87 100 97 74 95 100 100 100 100 100 100 100 100 100 100 100 60 8 5 6 97 80 71 74 82 100 100 100 100 100 100 100 100 100 100 100 70 78 100 100 71 86 100 100
83 86 99 100 86 100 74 65 76 56 42 72 69 88 99 100 88 89 97 100 97 70 36 19 8 6 74 34 98 88 91 98 100 91 100 100 100 100 100 100 100 99 100 97 98 100 100 100 100 100 100 100 100 100
100 100 100 99 86 100 70 40 79 48 95 82 77 82 100 100 91 92 92 94 97 100 100 100 86 95 90 100 97 100 99 100 99 100 100 100 100 100 100 100 100 100 100 100 100 100 100 100 100 100 100 100 97 81
100 100 100 98 75 97 52 34 76 94 96 82 72 97 100 100 100 100 100 100 100 99 85 74 56 74 100 100 100 100 100 100 100 100 100 100 100 100 100 100 100 100 100 100 100 100 100 99 68 71 75 66 89 100
100 100 93 100 100 76 31 65 100 100 100 100 100 100 100 100 99 100 100 100 96 81 78 87 76 100 100 100 100 100 100 100 100 100 100 100 100 100 100 100 100 100 100 100 100 100 100 98 55 18 27 76 36 5
96 59 84 95 97 95 100 100 100 100 100 100 100 100 100 100 96 100 100 100 100 100 100 100 100 100 100 100 100 100 100 100 100 100 100 100 100 100 100 100 98 98 96 94 95 98 98 73 61 49 26 71 93 50
92 81 95 100 100 100 100 100 100 100 100 100 100 100 100 100 100 100 100 100 100 100 100 100 100 100 100 100 100 100 100 100 100 100 100 100 100 100 100 86 66 54 61 100 98 95 70 100 100 100 100 97 92 93
100 100 100 100 100 100 100 100 100 100 100 100 100 100 100 100 100 100 100 100 100 100 100 100 100 100 100 100 100 100 100 100 100 100 100 81 70 46 38 39 35 100 19 71 90 99 86 62 62 79 63 92 98 36
100 100 100 100 100 100 100 100 100 100 100 100 100 100 100 100 100 100 100 100 100 100 100 100 100 100 100 100 100 100 100 100 100 100 100 100 100 97 90 71 58 68 90 96 100 100 100 100 100 96 100 100 100 95
100 100 100 100 100 100 100 100 100 100 100 100 100 100 100 100 100 100 100 100 100 100 100 100 100 83 79 86 89 100 100 88 84 38 48 74 97 92 80 21 7 52 56 38 21 45 33 35 45 11 10 40 49 62
100 100 100 100 100 100 100 100 100 100 100 100 100 100 100 100 100 100 100 100 100 100 100 100 100 68 60 56 40 22 16 5 30 66 95 99 100 100 98 70 55 30 19 8 5 38 98 97 90 99 98 90 72 78
100 100 100 100 100 100 100 100 100 100 100 100 100 100 100 100 100 100 100 100 100 100 100 80 88 24 7 5 5 5 5 5 5 2 0 0 0 0 0 0 0 0 0 0 0 0 0 0 0 1 30 44 54 44
100 100 100 100 100 100 100 100 100 100 100 100 100 100 100 100 100 100 100 100 98 76 42 23 7 5 5 5 5 5 5 4 6 9 1 0 0 0 0 0 0 0 0 0 0 0 0 0 0 0 0 0 0 0